Location: Albany
(35.0000°S, 118.0000°E)
Time: 19:06:15
(UTC-04:00)

ADEOS Rocket - Visible Passes

Search period start: 22 October 2014 00:00
Search period end: 01 November 2014 00:00
Orbit: 860 x 1307 km, 98.7° (Epoch: 22 October)

Date Brightness Start Highest point End Pass type
(mag) Time Alt. Az. Time Alt. Az. Time Alt. Az.
22 Oct 4.8 08:09:53 10° SE 08:11:43 15° ESE 08:11:43 15° ESE visible
22 Oct 3.7 09:53:47 10° S 09:58:41 53° SSW 09:58:41 53° SSW visible
23 Oct 3.7 09:04:53 10° SSE 09:09:23 45° SE 09:09:23 45° SE visible
23 Oct 5.0 10:51:37 10° SSW 10:56:12 22° WSW 10:56:22 22° WSW visible
24 Oct 4.5 08:17:08 10° SE 08:20:06 20° ESE 08:20:06 20° ESE visible
24 Oct 3.8 10:01:35 10° S 10:07:04 51° SW 10:07:04 51° SW visible
25 Oct 3.4 09:12:33 10° SSE 09:17:47 57° SE 09:17:47 57° SE visible
25 Oct 5.2 10:59:42 10° SSW 11:03:55 19° WSW 11:04:46 19° WSW visible
26 Oct 4.3 08:24:31 10° SE 08:28:30 25° ESE 08:28:30 25° ESE visible
26 Oct 4.0 10:09:25 10° S 10:15:26 45° WSW 10:15:28 45° WSW visible
27 Oct 3.2 09:20:14 10° SSE 09:26:11 73° ESE 09:26:11 73° ESE visible
27 Oct 5.4 11:07:51 10° SSW 11:11:37 16° WSW 11:13:10 15° W visible
28 Oct 4.0 08:31:59 10° SE 08:36:54 32° E 08:36:54 32° E visible
28 Oct 4.2 10:17:18 10° S 10:23:13 39° WSW 10:23:53 38° W visible
29 Oct 5.0 07:46:00 10° ESE 07:47:37 12° E 07:47:37 12° E visible
29 Oct 3.1 09:27:58 10° SSE 09:34:32 90° ENE 09:34:36 89° N visible
29 Oct 5.5 11:16:08 10° SSW 11:19:19 14° WSW 11:21:35 12° W visible
30 Oct 3.8 08:39:30 10° SSE 08:45:19 38° E 08:45:19 38° E visible
30 Oct 4.5 10:25:12 10° S 10:30:59 34° WSW 10:32:18 32° W visible
31 Oct 4.8 07:52:43 10° ESE 07:56:03 15° E 07:56:03 15° E visible
31 Oct 3.3 09:35:43 10° S 09:42:22 79° WSW 09:43:01 72° NW visible
31 Oct 5.7 11:24:40 10° SW 11:27:00 12° WSW 11:29:23 10° W visible
